KF4PPJ Weather Reports


Display with metric or nautical units.
time (UTC)temp
F
wind
direction
speed
MPH
gust
MPH
rain 1hr
in
rain 24hr
in
rain mn
in
humidity
%
barometer
mb
20260906205802 71 113 3.0 8.0 0.00 0.00 0.00 54 1017.8
20260906205259 71 249 4.0 6.0 0.00 0.00 0.00 53 1018.0
20260906204754 71 262 3.0 7.0 0.00 0.00 0.00 53 1017.9
20260906204252 71 280 5.0 7.0 0.00 0.00 0.00 54 1018.0
20260906203752 71 239 4.0 9.0 0.00 0.00 0.00 53 1018.0
20260906203248 72 214 2.0 7.0 0.00 0.00 0.00 53 1018.0
20260906202744 71 165 3.0 7.0 0.00 0.00 0.00 53 1018.1
20260906202243 71 352 3.0 5.0 0.00 0.00 0.00 56 1018.1
20260906201738 71 275 5.0 9.0 0.00 0.00 0.00 55 1018.1
20260906201232 71 205 3.0 6.0 0.00 0.00 0.00 54 1018.0
20260906200728 71 194 1.0 6.0 0.00 0.00 0.00 53 1018.1
20260906200224 71 165 1.0 3.0 0.00 0.00 0.00 52 1018.0
20260906195719 71 91 3.0 8.0 0.00 0.00 0.00 54 1018.0
20260906195216 71 119 2.0 8.0 0.00 0.00 0.00 53 1018.2
20260906194711 71 153 3.0 11.0 0.00 0.00 0.00 52 1018.2
20260906194206 71 227 3.0 6.0 0.00 0.00 0.00 53 1018.3
20260906193701 71 259 3.0 6.0 0.00 0.00 0.00 51 1018.2
20260906193156 70 153 3.0 5.0 0.00 0.00 0.00 54 1018.3
20260906192652 70 178 1.0 11.0 0.00 0.00 0.00 53 1018.3
20260906192151 69 163 3.0 8.0 0.00 0.00 0.00 55 1018.7
20260906191646 70 15 7.0 11.0 0.00 0.00 0.00 54 1018.4
20260906191146 70 196 3.0 7.0 0.00 0.00 0.00 54 1018.4
20260906190640 69 125 5.0 10.0 0.00 0.00 0.00 55 1018.7
20260906190135 69 10 6.0 8.0 0.00 0.00 0.00 56 1018.8
20260906185633 69 195 2.0 7.0 0.00 0.00 0.00 57 1018.7
20260906185127 69 101 2.0 6.0 0.00 0.00 0.00 55 1018.8
20260906184622 69 212 3.0 7.0 0.00 0.00 0.00 57 1018.6
20260906184118 69 151 2.0 5.0 0.00 0.00 0.00 58 1018.9
20260906183614 69 156 3.0 6.0 0.00 0.00 0.00 59 1018.6
20260906183109 68 164 2.0 3.0 0.00 0.00 0.00 59 1018.6
20260906182604 68 154 2.0 2.0 0.00 0.00 0.00 60 1018.9
20260906182101 67 153 4.0 7.0 0.00 0.00 0.00 62 1018.7
20260906181555 67 202 7.0 8.0 0.00 0.00 0.00 64 1018.6
20260906181045 66 174 2.0 7.0 0.00 0.00 0.00 67 1018.7
20260906180545 66 202 4.0 6.0 0.00 0.00 0.00 67 1018.8
20260906180044 65 215 2.0 5.0 0.00 0.00 0.00 68 1018.7
20260906175543 65 189 3.0 5.0 0.00 0.00 0.00 68 1018.9
20260906175039 66 199 1.0 3.0 0.00 0.00 0.00 67 1018.7
20260906174537 66 135 1.0 6.0 0.00 0.00 0.00 66 1019.0
20260906174032 65 177 1.0 3.0 0.00 0.00 0.00 68 1019.1
20260906173527 64 175 6.0 8.0 0.00 0.00 0.00 68 1019.2
20260906173023 63 166 1.0 5.0 0.00 0.00 0.00 71 1019.2
20260906172517 63 181 2.0 9.0 0.00 0.00 0.00 70 1019.3
20260906172013 63 159 3.0 7.0 0.00 0.00 0.00 70 1019.3
20260906171508 62 142 1.0 7.0 0.00 0.00 0.00 71 1019.4
20260906171003 63 178 5.0 7.0 0.00 0.00 0.00 69 1019.4
20260906170459 63 211 3.0 5.0 0.00 0.00 0.00 70 1019.2
20260906165956 62 183 4.0 6.0 0.00 0.00 0.00 71 1019.4
20260906165454 62 180 5.0 8.0 0.00 0.00 0.00 72 1019.5
20260906164949 63 194 2.0 5.0 0.00 0.00 0.00 69 1019.4
20260906164448 63 96 2.0 6.0 0.00 0.00 0.00 68 1019.4
20260906163944 63 133 1.0 5.0 0.00 0.00 0.00 69 1019.7
20260906163440 62 151 0.0 1.0 0.00 0.00 0.00 71 1019.6
20260906162938 62 177 2.0 2.0 0.00 0.00 0.00 72 1019.6
20260906162437 61 142 1.0 2.0 0.00 0.00 0.00 72 1019.7
20260906161932 62 137 0.0 3.0 0.00 0.00 0.00 72 1019.7
20260906161431 62 157 1.0 2.0 0.00 0.00 0.00 72 1019.6
20260906160931 62 82 1.0 2.0 0.00 0.00 0.00 73 1019.6
20260906160424 62 171 1.0 1.0 0.00 0.00 0.00 73 1019.5
20260906155923 61 150 1.0 2.0 0.00 0.00 0.00 74 1019.4
20260906155417 60 124 1.0 2.0 0.00 0.00 0.00 76 1019.2
20260906154913 60 122 3.0 3.0 0.00 0.00 0.00 77 1019.3
20260906154412 59 105 2.0 3.0 0.00 0.00 0.00 79 1019.2
20260906153911 58 130 0.0 2.0 0.00 0.00 0.00 81 1019.2
20260906153410 58 105 2.0 2.0 0.00 0.00 0.00 82 1019.0
20260906152906 57 138 1.0 1.0 0.00 0.00 0.00 83 1019.0
20260906152400 57 151 0.0 0.0 0.00 0.00 0.00 86 1019.0
20260906151900 55 139 0.0 0.0 0.00 0.00 0.00 90 1019.1
20260906151355 54 139 0.0 1.0 0.00 0.00 0.00 91 1019.3
20260906150851 54 148 0.0 0.0 0.00 0.00 0.00 93 1019.0
20260906150346 53 144 0.0 1.0 0.00 0.00 0.00 95 1019.3
20260906145845 52 146 0.0 0.0 0.00 0.00 0.00 94 1019.0
20260906145344 51 155 1.0 1.0 0.00 0.00 0.00 94 1019.1
20260906144839 51 150 0.0 0.0 0.00 0.00 0.00 94 1019.1
20260906144334 51 150 0.0 0.0 0.00 0.00 0.00 94 1019.3
20260906143834 51 148 0.0 0.0 0.00 0.00 0.00 94 1019.1
20260906143331 51 153 0.0 0.0 0.00 0.00 0.00 94 1019.2
20260906142827 51 156 0.0 0.0 0.00 0.00 0.00 94 1019.2
20260906142321 51 150 0.0 0.0 0.00 0.00 0.00 94 1019.1
20260906141821 51 150 0.0 0.0 0.00 0.00 0.00 94 1019.1
20260906141315 51 152 0.0 0.0 0.00 0.00 0.00 94 1019.1
20260906140814 51 149 0.0 0.0 0.00 0.00 0.00 94 1019.0
20260906140309 51 147 0.0 1.0 0.00 0.00 0.00 94 1019.0
20260906135807 51 133 0.0 1.0 0.00 0.00 0.00 94 1019.0
20260906135305 51 131 0.0 0.0 0.00 0.00 0.00 94 1019.2
20260906134757 51 140 0.0 0.0 0.00 0.00 0.00 94 1018.8
20260906134252 51 133 0.0 0.0 0.00 0.00 0.00 94 1018.8
20260906133748 52 138 0.0 3.0 0.00 0.00 0.00 94 1018.8
20260906133243 52 133 1.0 1.0 0.00 0.00 0.00 95 1018.9
20260906132738 52 152 1.0 3.0 0.00 0.00 0.00 95 1018.8
20260906132234 52 150 0.0 0.0 0.00 0.00 0.00 94 1019.0
20260906131730 52 148 0.0 1.0 0.00 0.00 0.00 95 1018.8
20260906131224 52 140 1.0 2.0 0.00 0.00 0.00 95 1019.1
20260906130720 52 143 1.0 2.0 0.00 0.00 0.00 95 1018.9
20260906130214 52 122 1.0 1.0 0.00 0.00 0.00 95 1018.8
20260906125708 53 151 0.0 0.0 0.00 0.00 0.00 95 1018.9
20260906125206 53 131 0.0 0.0 0.00 0.00 0.00 95 1018.7
20260906124702 53 139 2.0 3.0 0.00 0.00 0.00 95 1018.9
20260906124157 52 154 0.0 0.0 0.00 0.00 0.00 95 1019.1
20260906123655 52 146 0.0 0.0 0.00 0.00 0.00 95 1018.7
20260906123151 52 138 0.0 0.0 0.00 0.00 0.00 95 1019.1
20260906122650 52 145 0.0 0.0 0.00 0.00 0.00 95 1018.9
20260906122145 52 155 0.0 0.0 0.00 0.00 0.00 95 1018.9
20260906121642 52 155 0.0 0.0 0.00 0.00 0.00 95 1018.8
20260906121138 52 155 0.0 0.0 0.00 0.00 0.00 95 1018.8
20260906120634 52 154 0.0 0.0 0.00 0.00 0.00 95 1018.9
20260906120130 52 160 0.0 0.0 0.00 0.00 0.00 95 1019.0
20260906115625 52 150 0.0 0.0 0.00 0.00 0.00 95 1018.8
20260906115120 52 145 0.0 0.0 0.00 0.00 0.00 95 1018.8
20260906114613 52 123 1.0 1.0 0.00 0.00 0.00 95 1018.6
20260906114108 52 108 1.0 2.0 0.00 0.00 0.00 95 1018.9
20260906113608 52 135 0.0 0.0 0.00 0.00 0.00 95 1019.1
20260906113103 52 153 0.0 0.0 0.00 0.00 0.00 95 1019.0
20260906112603 52 145 0.0 0.0 0.00 0.00 0.00 95 1019.0
20260906112100 52 128 1.0 1.0 0.00 0.00 0.00 95 1019.2
20260906111559 52 147 0.0 0.0 0.00 0.00 0.00 95 1019.1
20260906111054 52 147 0.0 0.0 0.00 0.00 0.00 95 1019.0
20260906110549 52 152 0.0 0.0 0.00 0.00 0.00 95 1019.2
20260906110048 52 152 0.0 0.0 0.00 0.00 0.00 95 1019.3
20260906105543 52 152 0.0 0.0 0.00 0.00 0.00 95 1019.1
20260906105039 52 155 0.0 0.0 0.00 0.00 0.00 95 1019.0
20260906104537 52 151 0.0 0.0 0.00 0.00 0.00 95 1019.0
20260906104032 51 148 0.0 0.0 0.00 0.00 0.00 94 1018.9
20260906103531 51 160 0.0 0.0 0.00 0.00 0.00 94 1019.1
20260906103026 51 151 0.0 0.0 0.00 0.00 0.00 94 1018.9
20260906102526 51 152 0.0 0.0 0.00 0.00 0.00 94 1018.8
20260906102020 52 152 0.0 0.0 0.00 0.00 0.00 94 1019.1
20260906101515 52 152 0.0 0.0 0.00 0.00 0.00 94 1019.2
20260906101010 52 152 0.0 0.0 0.00 0.00 0.00 94 1018.9
20260906100506 52 152 0.0 0.0 0.00 0.00 0.00 94 1019.0
20260906100000 52 152 0.0 0.0 0.00 0.00 0.00 94 1018.9
20260906095455 52 151 0.0 0.0 0.00 0.00 0.00 94 1018.9
20260906094951 51 152 0.0 0.0 0.00 0.00 0.00 94 1019.0
20260906094449 51 152 0.0 0.0 0.00 0.00 0.00 94 1019.2
20260906093946 51 152 0.0 0.0 0.00 0.00 0.00 94 1019.1
20260906093442 51 153 0.0 0.0 0.00 0.00 0.00 94 1019.1
20260906092942 51 153 0.0 0.0 0.00 0.00 0.00 94 1018.9
20260906092441 51 150 0.0 0.0 0.00 0.00 0.00 94 1018.9
20260906091936 51 152 0.0 0.0 0.00 0.00 0.00 93 1019.1
20260906091432 51 151 0.0 0.0 0.00 0.00 0.00 93 1019.0
20260906090929 51 154 0.0 0.0 0.00 0.00 0.00 93 1019.1
20260906090424 51 160 0.0 0.0 0.00 0.00 0.00 93 1019.1
20260906085918 52 160 0.0 0.0 0.00 0.00 0.00 93 1019.0
20260906085417 52 151 0.0 0.0 0.00 0.00 0.00 93 1018.7
20260906084917 52 151 0.0 0.0 0.00 0.00 0.00 93 1019.0
20260906084412 52 154 0.0 0.0 0.00 0.00 0.00 93 1018.9
20260906083911 52 154 0.0 0.0 0.00 0.00 0.00 92 1019.0
20260906083407 52 162 0.0 0.0 0.00 0.00 0.00 92 1019.0
20260906082906 52 148 0.0 0.0 0.00 0.00 0.00 92 1019.0
20260906082402 52 148 0.0 0.0 0.00 0.00 0.00 92 1018.9
20260906081857 52 144 0.0 0.0 0.00 0.00 0.00 92 1019.1
20260906081353 52 148 0.0 0.0 0.00 0.00 0.00 92 1019.0
20260906080849 52 155 0.0 0.0 0.00 0.00 0.00 92 1018.9
20260906080345 52 155 0.0 0.0 0.00 0.00 0.00 92 1019.0
20260906075844 53 155 0.0 0.0 0.00 0.00 0.00 92 1018.9
20260906075339 53 154 0.0 0.0 0.00 0.00 0.00 92 1018.9
20260906074835 53 154 0.0 0.0 0.00 0.00 0.00 92 1019.0
20260906074334 53 150 0.0 0.0 0.00 0.00 0.00 92 1019.1
20260906073833 53 139 0.0 0.0 0.00 0.00 0.00 91 1018.9
20260906073328 53 155 0.0 0.0 0.00 0.00 0.00 91 1019.2
20260906072825 53 159 0.0 0.0 0.00 0.00 0.00 91 1019.0
20260906072320 53 160 0.0 0.0 0.00 0.00 0.00 91 1019.3
20260906071816 53 153 0.0 0.0 0.00 0.00 0.00 91 1019.2
20260906071315 53 149 0.0 0.0 0.00 0.00 0.00 91 1019.1
20260906070812 53 150 0.0 0.0 0.00 0.00 0.00 90 1019.4
20260906070308 53 150 0.0 0.0 0.00 0.00 0.00 90 1019.4
20260906065808 53 150 0.0 0.0 0.00 0.00 0.00 90 1019.1
20260906065305 53 150 0.0 0.0 0.00 0.00 0.00 90 1019.3
20260906064758 53 150 0.0 0.0 0.00 0.00 0.00 90 1019.1
20260906064254 53 154 0.0 0.0 0.00 0.00 0.00 90 1019.2
20260906063749 53 154 0.0 0.0 0.00 0.00 0.00 90 1019.2
20260906063245 53 118 1.0 5.0 0.00 0.00 0.00 90 1019.3
20260906062740 53 157 0.0 0.0 0.00 0.00 0.00 89 1019.3
20260906062239 53 156 0.0 0.0 0.00 0.00 0.00 89 1019.2
20260906061735 53 156 0.0 0.0 0.00 0.00 0.00 89 1019.2
20260906061231 54 160 0.0 0.0 0.00 0.00 0.00 88 1019.3
20260906060726 54 151 0.0 0.0 0.00 0.00 0.00 88 1019.4
20260906060224 54 151 0.0 0.0 0.00 0.00 0.00 88 1019.2
20260906055719 54 151 0.0 0.0 0.00 0.00 0.00 87 1019.3
20260906055214 54 152 0.0 0.0 0.00 0.00 0.00 87 1019.4
20260906054709 54 152 0.0 0.0 0.00 0.00 0.00 86 1019.4
20260906054204 54 154 0.0 0.0 0.00 0.00 0.00 86 1019.6
20260906053702 55 152 0.0 0.0 0.00 0.00 0.00 86 1019.5
20260906053156 55 153 0.0 0.0 0.00 0.00 0.00 85 1019.5
20260906052651 55 153 0.0 0.0 0.00 0.00 0.00 85 1019.5
20260906052148 55 152 0.0 0.0 0.00 0.00 0.00 84 1019.4
20260906051644 55 153 0.0 0.0 0.00 0.00 0.00 84 1019.5
20260906051143 55 152 0.0 0.0 0.00 0.00 0.00 84 1019.6
20260906050639 55 151 0.0 0.0 0.00 0.00 0.00 84 1019.7
20260906050134 55 155 0.0 0.0 0.00 0.00 0.00 85 1019.6
20260906045633 55 148 0.0 0.0 0.00 0.00 0.00 85 1019.6
20260906045128 55 147 0.0 0.0 0.00 0.00 0.00 84 1019.5
20260906044624 55 150 0.0 0.0 0.00 0.00 0.00 84 1019.4
20260906044119 56 150 0.0 0.0 0.00 0.00 0.00 83 1019.4
20260906043615 56 150 0.0 0.0 0.00 0.00 0.00 83 1019.6
20260906043110 56 150 0.0 0.0 0.00 0.00 0.00 81 1019.8
20260906042610 57 150 0.0 0.0 0.00 0.00 0.00 80 1019.6
20260906042104 57 150 0.0 0.0 0.00 0.00 0.00 79 1019.5
20260906041601 57 150 0.0 0.0 0.00 0.00 0.00 78 1019.7
20260906041055 57 150 0.0 0.0 0.00 0.00 0.00 78 1019.8
20260906040550 58 150 0.0 0.0 0.00 0.00 0.00 78 1019.6
20260906040045 58 150 0.0 0.0 0.00 0.00 0.00 78 1019.8
20260906035541 58 152 0.0 0.0 0.00 0.00 0.00 77 1019.6
20260906035031 58 153 0.0 0.0 0.00 0.00 0.00 78 1019.6
20260906034531 58 132 0.0 0.0 0.00 0.00 0.00 77 1019.5
20260906034026 59 147 0.0 0.0 0.00 0.00 0.00 77 1019.6
20260906033521 59 148 0.0 0.0 0.00 0.00 0.00 77 1019.6
20260906033016 60 148 0.0 1.0 0.00 0.00 0.00 76 1019.5
20260906032512 59 124 0.0 5.0 0.00 0.00 0.00 76 1019.5
20260906032007 59 149 0.0 0.0 0.00 0.00 0.00 79 1019.6
20260906031503 59 149 0.0 0.0 0.00 0.00 0.00 78 1019.3
20260906030957 60 149 0.0 0.0 0.00 0.00 0.00 77 1019.2
20260906030452 60 149 0.0 0.0 0.00 0.00 0.00 77 1019.5
20260906025946 60 149 0.0 0.0 0.00 0.00 0.00 77 1019.4
20260906025445 60 149 0.0 0.0 0.00 0.00 0.00 77 1019.5
20260906024944 60 143 0.0 0.0 0.00 0.00 0.00 76 1019.4
20260906024439 61 153 0.0 0.0 0.00 0.00 0.00 75 1019.4
20260906023938 61 151 0.0 0.0 0.00 0.00 0.00 75 1019.4
20260906023435 62 137 0.0 0.0 0.00 0.00 0.00 72 1019.4
20260906022930 62 150 0.0 0.0 0.00 0.00 0.00 73 1019.1
20260906022426 63 151 0.0 0.0 0.00 0.00 0.00 72 1019.1
20260906021921 63 150 0.0 0.0 0.00 0.00 0.00 69 1019.3
20260906021420 63 145 0.0 0.0 0.00 0.00 0.00 69 1019.3
20260906020915 64 145 0.0 0.0 0.00 0.00 0.00 68 1019.2
20260906020415 64 147 1.0 1.0 0.00 0.00 0.00 68 1019.0
20260906015910 65 140 1.0 1.0 0.00 0.00 0.00 65 1019.2
20260906015409 65 149 0.0 2.0 0.00 0.00 0.00 64 1019.3
20260906014908 66 152 1.0 1.0 0.00 0.00 0.00 64 1019.2
20260906014403 68 157 1.0 2.0 0.00 0.00 0.00 61 1019.1
20260906013900 69 153 0.0 2.0 0.00 0.00 0.00 55 1019.1
20260906013355 70 258 2.0 3.0 0.00 0.00 0.00 52 1018.8
20260906012850 70 159 1.0 2.0 0.00 0.00 0.00 51 1019.0
20260906012345 71 150 0.0 1.0 0.00 0.00 0.00 50 1019.3
20260906011844 71 164 1.0 2.0 0.00 0.00 0.00 50 1019.2
20260906011339 72 157 1.0 1.0 0.00 0.00 0.00 48 1019.0
20260906010835 71 153 1.0 1.0 0.00 0.00 0.00 49 1019.1
20260906010331 72 168 1.0 2.0 0.00 0.00 0.00 48 1019.2
20260906005827 72 189 1.0 2.0 0.00 0.00 0.00 48 1019.1
20260906005326 72 164 1.0 1.0 0.00 0.00 0.00 49 1019.0
20260906004825 72 162 1.0 1.0 0.00 0.00 0.00 48 1019.1
20260906004324 72 161 0.0 1.0 0.00 0.00 0.00 50 1018.9
20260906003820 72 164 2.0 6.0 0.00 0.00 0.00 47 1018.9
20260906003315 73 162 2.0 3.0 0.00 0.00 0.00 47 1019.0
20260906002811 73 168 0.0 2.0 0.00 0.00 0.00 45 1018.8
20260906002310 73 178 2.0 2.0 0.00 0.00 0.00 46 1018.9
20260906001806 74 213 3.0 3.0 0.00 0.00 0.00 46 1018.7
20260906001301 73 169 1.0 3.0 0.00 0.00 0.00 49 1019.0
20260906000755 72 198 2.0 2.0 0.00 0.00 0.00 49 1018.8
20260906000250 73 209 3.0 6.0 0.00 0.00 0.00 49 1018.9
20260905235745 72 201 4.0 5.0 0.00 0.00 0.00 46 1018.8
20260905235244 73 197 5.0 5.0 0.00 0.00 0.00 47 1018.9
20260905234741 74 183 3.0 6.0 0.00 0.00 0.00 44 1019.0
20260905234235 74 223 3.0 3.0 0.00 0.00 0.00 44 1019.0
20260905233731 73 190 1.0 2.0 0.00 0.00 0.00 46 1018.7
20260905233230 73 200 3.0 5.0 0.00 0.00 0.00 47 1019.2
20260905232730 73 166 0.0 1.0 0.00 0.00 0.00 48 1019.2
20260905232226 73 177 1.0 2.0 0.00 0.00 0.00 47 1019.1
20260905231721 73 154 1.0 3.0 0.00 0.00 0.00 52 1019.1
20260905231217 73 197 5.0 7.0 0.00 0.00 0.00 52 1019.0
20260905230713 72 160 0.0 3.0 0.00 0.00 0.00 53 1019.2
20260905230211 71 213 2.0 2.0 0.00 0.00 0.00 55 1019.2
20260905225710 71 208 2.0 3.0 0.00 0.00 0.00 54 1019.3
20260905225206 69 221 1.0 3.0 0.00 0.00 0.00 56 1019.1
20260905224705 69 171 1.0 2.0 0.00 0.00 0.00 57 1019.3
20260905224200 70 165 1.0 3.0 0.00 0.00 0.00 56 1019.2
20260905223656 69 175 2.0 3.0 0.00 0.00 0.00 57 1019.4
20260905223153 71 182 4.0 9.0 0.00 0.00 0.00 55 1019.4
20260905222649 70 116 1.0 3.0 0.00 0.00 0.00 58 1019.3
20260905222148 71 73 2.0 3.0 0.00 0.00 0.00 58 1019.5
20260905221644 71 167 1.0 6.0 0.00 0.00 0.00 58 1019.7
20260905221141 69 166 1.0 6.0 0.00 0.00 0.00 58 1019.8
20260905220636 69 72 3.0 5.0 0.00 0.00 0.00 57 1019.7
20260905220132 68 186 2.0 5.0 0.00 0.00 0.00 60 1019.9
20260905215632 68 222 5.0 8.0 0.00 0.00 0.00 59 1020.0
20260905215127 68 204 2.0 5.0 0.00 0.00 0.00 64 1020.1
20260905214623 67 230 4.0 7.0 0.00 0.00 0.00 64 1020.1
20260905214123 66 226 3.0 3.0 0.00 0.00 0.00 64 1020.1
20260905213619 66 192 0.0 3.0 0.00 0.00 0.00 67 1020.3
20260905213114 65 170 1.0 2.0 0.00 0.00 0.00 68 1020.2
20260905212609 64 112 1.0 1.0 0.00 0.00 0.00 69 1020.1
20260905212108 64 102 2.0 2.0 0.00 0.00 0.00 71 1020.2
20260905211603 64 135 2.0 2.0 0.00 0.00 0.00 70 1020.3
20260905211059 64 209 1.0 5.0 0.00 0.00 0.00 69 1020.3
20260905210554 64 193 3.0 3.0 0.00 0.00 0.00 70 1020.4
20260905210049 65 97 2.0 3.0 0.00 0.00 0.00 70 1020.4